User: anonymous   Login
Location: Buckeye Ditch
(40.9104°N, 122.9517°W)
Time: 02:05:06
(UTC+00:00)
Language:

Cosmos 1975 - Orbit

View from above orbital plane
View from above orbital plane
View from above satellite
View from above satellite

Ground track
Ground track

The orbit data is extracted from the following two-line orbital elements,

1 19573U 88093A   24174.56632639  .00005222  00000-0  28139-3 0  9998
2 19573  82.5264  18.8285 0014326 195.4481 164.6316 15.14505604924333
Epoch (UTC): 22 June 2024 13:35:30
Eccentricity: 0.0014326
inclination: 82.5264°
perigee height: 512 km
apogee height: 532 km
right ascension of ascending node: 18.8285°
argument of perigee: 195.4481°
revolutions per day: 15.14505604
mean anomaly at epoch: 164.6316°
orbit number at epoch: 92433

The dashed part of the orbit path shows where the satellite is in the earth's shadow,  

DLR